Tracking 18647 objects as of 29-May-2017
HD Live streaming from Space Station
objects crossing your sky now

OPS 7044 (VELA 12)

Track OPS 7044 (VELA 12) now!
OPS 7044 (VELA 12) is classified as:


NORAD ID: 4366
Int'l Code: 1970-027A
Perigee: 32,671.9 km
Apogee: 190,226.6 km
Inclination: 44.2 °
Period: 6,707.9 minutes
Semi major axis: 117820 km
RCS: 0.31 m2 (medium)
Launch date: April 8, 1970
Source: United States (US)
Launch site: AIR FORCE EASTERN TEST RANGE (AFETR)
Your satellite tracking list
Your tracking list is empty





NASA's NSSDC Master Catalog

Two Line Element Set (TLE):
1  4366U 70027A   17151.11381816 +.00000434 +00000-0 +00000-0 0  9990
2  4366 044.1857 201.4016 6686230 070.1590 000.7562 00.21467077030622
Source of the keplerian elements: AFSPC